Location: Caixon
(43.4106°N, 0.0273°E)
Time: 20:51:13
(UTC+00:00)

PAYLOAD A - Pass Details

Date: 16 October 2021
Orbit: 692 x 831 km, 98.4° (Epoch: 07 December)

Event Time Altitude Azimuth Distance (km) Brightness Sun altitude
Rises 03:31:01 0° 15° (NNE) 3,181 7.6 -30.3°
Reaches altitude 10° 03:33:17 10° 18° (NNE) 2,274 6.8 -29.9°
Enters shadow 03:37:57 69° 72° (ENE) 823 4.2 -29.1°
